STARLINK-32949, 63145

Orbit data source: Space-Track

STARLINK-32949, 63145 is a payload satellite owned by SpaceX/Seattle (US) in LEO that was launched on Mon, 03 Mar 2025 UTC via an FALCON 9 launch vehicle from the Air Force Eastern Test Range (AFETR). Payload-class satellites include a variety of spacecraft equipped with specific instruments for various scientific and technological missions. These include communications satellites like Starlink; space stations such as the ISS; scientific satellites like the Hubble; Earth observation satellites from companies like Planet Labs, Umbra, and HawkEye 360; GPS; miniature CubeSats for education and research; and military/defense satellites.

Loading next visibility...
Identifier
63145, 2025-043P
Orbit
LEO
Last TLE update
18 hours ago
Origin
Manufacturer
SpaceX/Seattle
Mission
Operational Commercial Communications
Bus & Motor
STARLINK V2M, Unknown motor
Mass
730 kg wet, ~700 kg dry
Launch date (UTC)
2025-03-03 (4 months ago)
Launch vehicle
FALCON 9
Launch site
Air Force Eastern Test Range (AFETR)
Object type
Payload
Rocket body
Debris
Shape & HBR
Box + 2 Pan, 29 m
Radar Cross Section
33.884 m², Large (>1 m²)

Expand to show TLE details & history

TLE from 18 hours ago
0 STARLINK-32949
1 63145U 25043P   25181.78520937  .00011627  00000-0  43108-3 0  9997
2 63145  42.9993 359.1271 0001732 273.0552  87.0101 15.27600819 19402
Epoch: 2025-06-30T18:50Z
TLE epoch observation values (Epoch: 2025-06-30T18:50:42.089Z)
Latitude
-0.00005°
Longitude
157.36164°
Altitude
482.7 km
Speed
7.626 km/s
True Right ascension
23h 56m 30s
True Declination
0° 00' 00"
Sunlit
Object was in daylight at epoch
Visualization orbit readout
Latitude
41.08828°
Longitude
-95.23943°
Altitude
486.809 km
Speed
7.627 km/s
Apparent Right ascension
09h 34m 26s
Apparent Declination
3° 01' 58"
Sunlit
Object is in daylight
Visualization observer readout
Local Sidereal Time
00:12:56
Azimuth
50.013° ENE
Elevation
-33.779°
Doppler factor
1
Orbital elements
Apogee altitude
486.121 km
Perigee altitude
483.743 km
Semi-major axis
6,863.069 km
Eccentricity
0.00017
Inclination
42.9993°
RAAN
359.1271°
Arg. of periapsis
273.0552°
True anomaly
Unknown
Mean anomaly
87.0101°
Eccentric anomaly
Unknown
Mean motion
3.81738 °/min
Orbital period
94.31 mins
BSTAR
0.00043108
Loading maneuver chart data...
Loading SW <> Apogee altitude chart data...
Loading historical data...
Loading historical data...
Loading historical data...
Loading historical data...
Loading historical data...
Loading historical data...
Loading historical data...

STARLINK-32949 Visibility forecast

Observer location: undefined°, undefined°

Span
Click to sort rows by Start time (UTC) header in descending order
Start Az.
Max El. time (UTC)
Max El. Az.
Max El.
End time (UTC)
End Az.
5 mins2025-07-01 15:29:08.066Z223.296° SW2025-07-01 15:31:08.066Z152.291° SSE39.27°2025-07-01 15:34:08.066Z79.145° E
5 mins2025-07-01 17:08:08.066Z281.208° WNW2025-07-01 17:10:08.066Z356.27° N40.053°2025-07-01 17:13:08.066Z69.535° E
5 mins2025-07-01 18:47:08.066Z295.586° NW2025-07-01 18:49:08.066Z355.186° N40.702°2025-07-01 18:52:08.066Z87.986° E
5 mins2025-07-01 20:26:08.066Z271.799° WNW2025-07-01 20:28:08.066Z212.429° SW36.542°2025-07-01 20:31:08.066Z135.431° SSE
|